Theta_e
318 316 323 321 308 307 302 304 306 304 307 313 316 317 316 320 316 310 336 340 340 342 347 349 349 351 351 351 350 350 349 348 347 346 345 344 343 342 341 340 340 339 338 339 337 336 335 335 336
314 317 322 317 304 298 301 306 304 307 313 321 320 321 319 317 328 331 334 341 340 344 346 348 346 350 350 350 349 349 349 347 345 345 344 343 342 341 340 340 340 338 338 341 336 337 336 333 333
313 316 313 308 303 297 300 305 307 309 319 314 317 322 320 320 330 333 339 342 341 344 346 347 345 350 350 349 349 349 348 348 346 345 344 343 343 341 340 341 341 340 336 335 334 338 337 334 335
316 316 312 302 298 301 303 306 306 309 312 312 317 315 325 330 332 336 341 343 341 344 346 344 345 349 349 349 348 347 348 348 347 346 344 344 343 341 339 339 339 340 336 335 335 335 337 336 338
316 311 301 299 299 302 305 307 308 308 309 311 317 312 318 327 334 339 341 343 341 343 346 347 344 346 347 348 348 347 347 347 346 345 344 342 341 340 338 337 337 337 336 335 334 334 335 336 338
307 306 297 295 296 300 304 307 308 309 309 310 311 313 317 324 335 339 342 343 344 343 345 346 338 340 342 345 346 346 345 345 344 344 343 341 340 340 338 337 335 334 333 333 334 334 335 336 340
303 300 295 294 295 298 302 306 307 309 309 309 313 309 317 323 335 340 342 343 344 344 344 345 346 342 335 339 341 342 344 343 343 343 342 341 341 340 339 339 336 334 333 333 333 334 335 335 339
307 302 295 297 296 297 303 305 306 307 308 309 316 309 310 321 335 339 341 342 343 343 343 343 344 344 344 344 334 335 338 338 339 339 337 335 335 335 335 335 337 337 336 335 335 336 335 335 336
307 298 295 297 297 299 303 303 304 304 306 307 310 311 314 321 333 335 337 338 339 340 342 343 343 344 344 343 339 331 331 333 333 334 331 332 340 339 336 331 332 335 336 336 336 336 336 334 332
303 297 297 301 301 300 301 301 302 302 303 305 305 308 311 319 330 332 333 333 332 334 339 342 343 343 344 342 343 342 343 343 343 342 341 340 339 340 336 330 326 329 329 331 333 334 333 329 332
302 297 299 299 300 300 300 300 301 301 300 305 304 305 308 314 325 330 331 333 334 335 338 341 342 343 342 341 343 343 343 343 341 340 340 339 339 338 336 337 337 337 325 333 334 333 332 333 333
296 299 299 300 300 299 299 300 300 301 304 304 304 303 304 308 315 325 330 332 334 337 339 340 341 340 338 340 337 332 326 320 315 314 315 328 331 332 332 333 333 333 333 332 333 334 335 334 334
297 297 297 298 297 297 297 298 298 298 303 303 301 300 302 303 308 316 328 332 334 334 337 338 337 335 332 329 326 320 311 311 310 310 311 312 314 316 318 320 322 324 327 326 330 329 328 328 330
295 295 296 296 296 296 294 296 294 297 298 297 297 299 300 302 305 310 316 326 330 333 329 316 319 325 323 320 316 312 311 310 310 310 310 311 312 313 313 313 313 315 317 318 320 323 323 323 323
294 292 294 293 293 293 293 292 291 298 296 296 296 297 298 299 302 308 311 320 328 329 313 316 311 311 313 311 310 309 308 308 308 309 310 311 311 311 312 313 312 313 314 314 315 315 316 317 319
291 291 291 291 292 292 292 294 295 295 295 296 297 298 298 299 299 303 309 312 317 321 311 307 304 305 307 307 307 307 307 308 308 307 306 306 306 306 306 307 308 309 310 311 312 313 313 313 314
290 291 289 291 291 291 291 294 296 294 294 296 298 298 298 299 300 301 302 307 308 313 307 304 305 305 305 306 306 305 305 304 304 305 305 305 306 306 306 306 307 307 307 307 307 307 310 310 311
290 287 288 290 290 290 290 291 297 295 295 297 297 297 296 297 298 300 300 303 304 306 305 304 304 304 303 303 303 303 304 303 304 304 305 305 305 305 305 305 306 306 306 306 307 306 306 306 306
292 290 290 291 289 289 292 292 295 298 295 296 297 295 294 295 296 297 299 300 301 302 302 302 301 300 301 302 301 302 302 303 303 304 304 304 304 303 303 304 304 304 303 304 304 304 304 305 307
290 290 290 290 288 288 291 289 294 295 294 294 293 293 293 293 293 295 297 299 300 301 300 300 299 299 300 301 301 302 302 302 303 304 303 302 302 302 301 301 302 302 301 302 302 302 301 303 305
288 288 288 289 287 287 287 290 293 292 292 290 291 292 292 293 293 293 295 298 300 299 299 298 299 299 299 300 301 301 301 303 302 302 302 301 301 301 300 300 300 300 300 300 300 300 300 299 302
287 289 288 286 288 287 286 287 293 292 290 289 290 291 292 292 293 294 296 297 298 298 299 299 298 299 300 302 301 300 299 299 300 300 300 300 300 299 299 298 298 298 299 298 298 299 299 299 297
287 287 287 285 285 284 284 285 292 288 288 289 290 291 292 293 294 294 296 297 296 298 298 298 299 300 300 300 300 300 299 300 300 299 299 299 299 298 297 297 297 297 297 297 297 297 297 298 297
288 287 286 286 285 280 284 286 289 290 291 290 290 290 291 292 294 295 295 295 295 297 297 298 299 299 299 299 298 298 297 297 297 297 297 297 297 297 297 296 296 296 296 296 296 296 296 297 297
287 285 282 279 278 280 281 280 289 290 290 291 290 290 292 293 293 293 293 294 295 296 296 297 299 297 298 298 297 297 296 296 296 296 295 294 295 295 295 295 295 293 293 293 294 294 295 296 296
284 286 286 279 280 283 278 279 287 289 289 290 292 292 292 292 293 294 294 295 295 295 296 297 298 296 297 297 297 297 296 297 297 296 295 295 294 295 295 295 295 293 293 292 292 292 292 294 294
283 281 286 279 270 279 285 285 289 288 287 288 289 290 291 291 292 293 294 295 295 295 295 297 297 296 297 297 297 296 296 296 295 295 295 295 295 294 294 294 294 294 293 292 292 292 292 293 293
284 287 280 282 277 276 281 280 288 284 285 287 288 290 291 291 292 293 294 295 295 295 295 297 297 296 296 296 296 295 295 295 295 295 294 294 294 294 293 293 294 294 294 294 294 293 293 293 293
281 281 282 284 283 280 279 284 290 290 288 287 289 291 291 291 292 293 294 294 294 293 295 296 295 294 294 294 294 294 294 294 295 294 294 294 294 294 293 293 293 293 293 293 292 292 292 292 292
284 284 283 281 279 282 281 285 288 288 289 289 289 290 292 292 292 293 294 292 291 292 293 293 293 293 294 294 294 294 294 294 294 293 293 293 292 293 292 292 291 291 291 292 291 290 291 291 291
Wind_Speed
8 6 3 4 6 4 4 4 0 5 5 1 3 3 1 4 1 3 3 6 9 18 16 16 12 14 14 14 13 12 12 12 12 10 9 8 7 6 5 4 4 4 2 4 5 7 7 5 4
6 3 4 2 5 6 5 4 8 5 5 7 5 4 4 3 3 6 11 5 14 17 15 16 12 11 13 13 12 12 11 11 11 10 9 8 7 5 3 3 4 2 6 8 3 2 7 7 5
4 3 4 3 3 7 1 5 4 4 6 3 4 2 1 4 4 9 4 10 15 15 14 14 11 12 11 12 12 12 11 11 11 10 9 8 7 4 1 3 2 4 4 5 4 7 7 6 7
3 4 3 5 8 4 2 3 3 7 4 3 1 4 2 3 3 5 10 12 15 14 14 13 11 12 13 12 11 11 10 11 11 9 7 5 6 5 3 3 3 4 3 4 4 5 3 6 7
1 2 4 3 6 3 6 2 3 6 4 5 4 4 2 3 3 5 11 11 13 12 12 14 9 11 11 14 12 10 10 9 8 8 7 5 5 4 4 4 5 5 4 2 1 2 2 3 8
3 2 4 7 5 3 4 4 5 6 3 4 4 2 3 2 6 8 10 10 12 13 12 13 9 9 10 10 11 8 8 7 7 7 7 5 5 5 4 3 2 2 1 1 3 4 4 5 8
2 3 1 2 3 3 2 3 7 7 5 6 0 3 4 6 6 9 8 9 10 12 12 12 13 10 7 8 9 8 9 9 9 8 7 5 5 4 3 3 3 2 2 2 2 4 6 6 7
0 3 3 4 4 1 3 2 1 5 4 2 1 4 4 5 8 9 8 9 10 10 11 12 11 11 11 10 8 9 8 8 8 7 6 5 4 4 4 4 5 4 4 4 5 5 6 6 6
1 3 4 3 6 3 1 3 2 1 4 3 4 1 4 7 9 9 10 9 9 8 10 11 11 11 11 10 9 8 8 7 7 7 7 7 6 6 5 1 3 5 6 6 7 6 6 6 6
4 3 4 0 2 2 1 3 2 4 5 7 5 5 4 9 11 12 13 11 10 11 11 10 11 12 11 8 9 11 9 8 8 6 6 4 3 2 4 4 4 6 6 8 8 8 7 7 7
3 4 2 2 3 2 2 4 3 5 7 10 7 6 8 10 11 12 13 13 14 12 10 11 11 10 8 7 6 4 3 2 3 5 4 3 2 2 2 1 2 3 2 5 5 5 5 7 7
4 4 3 1 1 2 3 2 5 10 7 3 2 1 3 8 12 13 12 11 12 13 12 11 10 7 4 4 4 5 5 5 4 4 5 3 2 0 0 1 2 2 3 5 6 5 7 8 9
5 2 3 2 4 5 4 9 9 11 13 7 5 6 8 9 10 10 10 10 11 12 12 10 8 7 6 6 6 5 5 4 5 4 4 2 2 2 3 3 4 4 3 5 7 7 7 7 8
1 3 5 3 3 4 5 5 1 1 3 5 2 5 7 12 10 10 11 12 12 12 11 8 6 7 7 6 7 5 5 5 4 4 4 5 3 3 3 3 4 4 5 5 6 7 8 8 9
1 5 5 6 3 4 2 8 12 6 4 5 3 3 4 4 10 12 12 12 13 11 10 10 9 7 7 8 7 5 5 5 5 5 6 6 5 4 4 3 3 4 4 7 7 8 8 9 9
2 2 4 4 4 2 5 6 3 3 6 7 2 4 5 4 6 11 9 11 10 10 11 10 8 9 8 7 6 5 5 5 5 4 4 6 6 6 4 3 4 4 5 5 6 6 7 8 9
3 5 6 3 2 2 8 7 3 6 3 8 8 7 7 9 10 9 10 10 10 11 12 11 10 10 9 8 7 7 7 5 5 4 4 5 5 5 5 4 4 5 5 5 5 6 7 8 9
7 6 5 6 3 3 6 17 11 10 11 12 10 9 7 8 10 7 8 10 11 11 11 11 9 10 9 7 6 5 5 4 4 4 4 6 5 6 6 5 5 6 6 6 6 7 7 9 9
2 4 7 3 2 3 11 15 22 10 12 14 10 7 6 7 1 6 9 10 13 12 13 12 12 10 7 5 5 3 3 3 3 3 5 5 6 6 6 5 6 6 7 8 9 8 9 8 8
7 9 8 4 3 4 10 17 22 16 13 8 6 6 6 5 5 9 12 11 13 14 13 12 11 9 6 4 3 2 2 2 2 2 4 5 6 6 6 6 6 7 6 8 7 8 8 7 6
10 12 6 5 2 3 7 16 13 4 6 4 4 4 5 6 9 12 13 14 15 14 14 12 11 10 7 6 4 3 3 2 1 3 4 5 5 6 6 7 6 7 6 6 7 7 8 8 7
12 9 7 5 4 5 2 8 8 6 8 6 5 6 6 8 9 12 14 15 15 13 12 12 11 10 7 6 5 5 2 2 2 3 4 5 5 6 6 6 6 6 5 7 7 6 7 7 8
1 4 6 2 3 3 6 6 4 3 10 11 7 6 8 10 13 15 15 15 13 12 11 10 10 9 7 6 5 3 3 1 3 3 6 5 5 6 6 7 7 7 6 6 8 8 7 7 8
12 8 6 3 2 7 9 9 14 9 10 11 9 8 9 11 13 13 13 13 12 10 10 9 10 8 6 5 5 5 4 3 4 5 5 5 5 5 5 6 7 8 8 8 8 8 9 8 8
5 9 3 5 6 9 4 7 17 2 5 10 15 13 12 12 13 13 14 12 11 11 10 8 8 7 6 5 5 4 3 4 5 5 5 8 6 5 6 7 7 6 8 10 10 9 10 9 9
14 9 6 11 7 4 1 10 6 2 3 6 12 13 13 12 11 13 12 11 11 10 9 8 8 7 6 5 4 3 3 3 3 4 5 6 7 7 9 8 8 9 8 8 8 8 8 11 9
8 11 2 5 2 3 6 6 11 6 5 9 14 14 14 13 12 12 11 10 10 9 8 8 7 7 6 5 3 2 3 4 4 5 6 5 7 7 9 10 10 9 9 9 9 7 9 10 10
5 5 5 3 7 9 6 5 7 11 13 14 16 17 16 14 13 11 10 10 8 8 7 7 7 6 5 4 2 1 2 4 4 4 6 7 8 8 10 10 10 10 10 10 10 9 9 10 8
5 6 5 3 4 4 3 5 2 8 14 18 18 18 17 15 14 12 10 8 8 7 7 7 6 6 5 4 4 4 4 3 3 4 6 7 9 10 10 11 11 12 12 11 10 11 11 12 11
3 9 8 5 6 5 2 6 1 3 11 13 14 14 15 14 13 10 10 9 9 9 8 7 6 6 6 5 5 5 3 3 4 5 7 8 9 10 11 11 12 13 13 12 12 12 11 11 12
Wind_Direction
307 307 277 231 235 244 233 189 257 176 184 125 103 236 220 19 257 9 118 131 158 155 156 163 154 158 149 143 140 136 134 129 127 127 126 123 121 120 123 131 141 140 114 134 105 108 109 102 79
314 272 223 199 248 233 203 149 201 164 115 121 137 159 187 108 71 98 135 146 157 154 158 165 155 155 145 145 143 135 137 139 138 138 135 135 135 136 143 185 198 208 100 123 98 122 130 128 117
265 284 234 221 226 239 252 177 164 148 159 150 152 301 60 100 114 146 86 144 156 156 162 156 153 153 152 148 149 143 151 150 151 153 153 157 155 151 111 337 306 212 115 98 62 56 152 162 144
223 171 140 234 216 229 258 133 173 153 161 225 224 171 168 32 121 143 137 148 159 157 165 141 160 154 161 156 155 158 165 166 162 161 156 174 168 134 104 30 26 135 133 106 73 57 168 203 180
216 213 185 218 237 255 230 250 221 184 164 168 196 126 122 126 99 132 151 154 159 165 168 162 166 160 163 163 160 174 182 171 161 159 161 160 154 160 150 119 106 108 108 85 51 25 16 319 237
166 259 200 220 224 217 238 212 210 209 177 142 215 182 103 109 156 136 151 159 157 165 167 165 172 166 167 160 155 167 161 164 167 161 170 170 173 184 192 181 159 148 164 312 309 314 312 300 269
224 216 217 193 232 233 182 172 220 202 189 198 57 224 105 171 144 146 151 154 160 161 169 174 179 174 159 158 157 177 180 180 181 186 182 181 192 202 208 207 215 255 293 306 317 309 314 311 292
69 260 184 207 200 188 117 197 308 238 189 55 295 224 145 135 146 146 147 152 157 162 174 177 182 185 186 181 185 193 198 195 198 195 186 195 208 220 231 250 225 266 276 288 300 300 304 309 322
223 240 229 199 186 112 150 219 141 357 257 204 191 261 76 140 151 153 151 156 162 170 176 178 180 189 194 197 191 204 208 202 200 202 199 203 226 207 213 285 296 267 274 276 282 290 295 297 264
227 235 223 113 162 182 180 235 184 226 211 227 215 182 143 169 179 177 181 169 177 174 178 180 186 190 193 198 204 205 203 208 216 224 227 243 257 341 327 296 312 301 304 294 286 280 277 265 266
171 246 160 202 235 253 250 236 210 214 220 234 208 183 182 185 196 201 197 187 182 177 179 185 185 187 201 200 208 204 197 145 74 66 61 55 48 2 7 330 282 278 311 292 269 265 261 275 272
218 229 242 272 175 218 237 306 246 226 243 84 157 204 223 210 206 208 204 193 182 181 182 178 181 177 162 144 101 91 94 97 87 68 53 60 71 110 182 266 298 291 296 281 266 269 275 263 257
231 227 201 243 263 264 278 255 268 259 252 244 238 243 241 240 232 214 213 194 187 182 176 173 173 160 139 124 115 118 113 108 120 109 86 88 74 16 337 318 312 314 294 294 287 282 281 273 258
132 262 264 263 229 251 261 253 245 150 74 150 216 246 239 240 233 215 202 193 187 181 167 151 138 142 136 126 124 119 112 109 102 83 63 56 45 23 1 341 325 310 306 293 286 283 282 278 273
32 292 265 225 225 231 240 242 230 238 235 258 273 260 243 254 223 221 202 196 189 182 156 157 138 132 132 124 118 112 106 107 94 85 70 62 46 31 13 345 324 322 314 301 293 288 284 277 274
223 249 258 126 182 171 230 262 142 143 171 169 262 279 259 248 235 225 210 199 186 171 168 147 142 131 133 126 120 113 109 101 96 85 71 50 39 20 1 341 329 328 310 306 295 291 281 272 269
206 250 216 235 192 197 220 273 145 177 214 269 289 287 266 260 243 226 218 200 183 173 152 138 133 130 124 116 111 105 102 97 91 83 69 51 41 21 351 332 322 317 304 295 297 292 287 284 282
198 218 226 247 153 204 226 259 250 210 277 278 288 281 265 256 246 216 195 181 164 153 144 133 127 126 123 119 114 113 99 101 83 72 52 31 24 1 340 317 311 309 299 292 285 284 280 280 283
144 211 236 210 128 259 244 264 273 263 264 268 270 255 255 261 234 176 157 148 144 143 140 137 131 129 136 135 139 139 116 104 87 75 37 22 359 344 332 318 313 309 299 300 296 292 287 282 278
227 248 244 269 154 248 283 271 275 272 258 256 245 240 241 219 180 160 154 148 149 144 136 133 126 123 115 118 108 94 96 106 47 63 13 13 351 342 329 323 313 310 302 299 300 302 301 293 282
224 227 222 252 152 234 291 271 241 202 209 210 217 246 235 207 169 161 156 153 146 142 138 131 122 112 99 104 113 115 128 155 179 356 348 350 341 338 334 323 316 311 303 301 307 299 292 286 287
241 213 212 180 196 248 292 289 262 215 215 220 205 208 187 165 158 156 151 149 142 134 129 124 117 111 104 107 102 81 69 354 6 322 327 325 335 335 336 325 320 317 312 303 306 299 295 290 282
223 135 156 144 179 335 176 261 213 181 230 216 196 183 168 161 156 152 150 140 132 137 130 125 121 116 112 99 92 107 94 44 340 332 328 337 336 333 333 334 324 319 311 307 303 298 287 281 279
140 108 81 90 128 247 172 214 258 205 223 184 171 172 162 159 152 143 136 137 134 134 135 137 134 122 115 113 100 82 63 22 349 345 332 334 330 328 328 329 323 320 311 305 304 297 287 281 278
199 164 164 214 197 248 121 205 259 219 192 183 170 166 161 159 153 147 147 148 144 148 146 143 142 133 130 122 110 91 60 14 350 343 333 328 324 322 320 321 315 311 309 307 300 293 288 283 277
196 209 212 236 218 239 92 230 246 261 143 159 166 159 155 159 158 158 155 153 154 155 157 152 150 142 151 145 124 99 49 359 331 333 316 309 313 315 317 312 307 308 300 290 282 284 286 285 277
176 218 84 100 81 267 200 249 258 191 174 175 168 164 165 162 160 156 155 158 159 161 161 160 158 155 156 145 132 94 19 345 309 293 300 313 311 320 319 309 304 303 294 282 277 271 274 271 273
242 140 174 203 218 230 210 266 248 198 190 177 175 176 168 163 161 162 164 162 161 159 159 163 164 163 156 150 139 169 280 273 276 303 326 316 311 316 315 311 303 296 290 283 283 278 275 277 271
172 196 229 266 234 257 267 227 183 232 187 181 178 177 172 173 173 173 173 170 165 162 168 169 172 175 178 185 189 207 235 279 308 325 321 314 312 310 307 309 308 303 300 296 289 284 280 277 274
230 223 189 216 214 246 352 269 111 295 182 173 174 175 177 179 175 175 172 171 171 178 176 180 183 190 195 194 198 212 238 344 342 328 324 324 318 318 313 307 302 298 296 294 290 285 281 277 276